TITAN 4B DEB, 27469

Orbit data source: Space-Track

TITAN 4B DEB, 27469 is space debris in LEO originally from a launch on Thu, 17 Aug 2000 UTC launched from the Air Force Western Test Range (AFWTR). Debris objects in space refer to the collection of defunct objects orbiting the Earth. Examples of debris include non-operational satellites, rocket bodies, and fragments generated from explosions, collisions, or faulty payload assembly.

Loading next visibility...
Identifier
27469, 2000-047C
Orbit
LEO
Country
Flag of USUS
Related business
Manufacturer
LMA
Mission
Spacecraft
Bus & Motor
Unknown
Mass
Unknown
Launch date (UTC)
2000-08-17 (26 years ago)
Launch vehicle
Unknown
Launch site
Air Force Western Test Range (AFWTR)
Object type
Payload
Rocket body
Debris
Shape & HBR
Unknown shape, 0.1 m
Radar Cross Section
Small (<0.1 m²)

Expand to show TLE details & history
Last TLE update: 3 days ago

TLE from 3 days ago
0 TITAN 4B DEB
1 27469U 00047C   26170.82310009  .00000193  00000-0  30127-4 0  9998
2 27469  67.9964 317.1947 0061309   1.7551 358.3792 14.91824338300127
Epoch: 2026-06-19T19:45Z
TLE epoch observation values (Epoch: 2026-06-19T19:45:15.847Z)
Latitude
-0.00005°
Longitude
112.8321°
Altitude
551.793 km
Speed
7.61 km/s
True Right ascension
21h 08m 46s
True Declination
0° 00' 00"
Sunlit
Object was in full shadow at epoch
Visualization orbit readout
Latitude
Unknown
Longitude
Unknown
Altitude
Unknown
Speed
Unknown
Apparent Right ascension
Unknown
Apparent Declination
Unknown
Sunlit
N/A
Visualization observer readout
Local Sidereal Time
23:20:08
Azimuth
Unknown
Elevation
Unknown
Doppler factor
Unknown
Orbital elements
Apogee altitude
633.146 km
Perigee altitude
547.699 km
Semi-major axis
6,968.56 km
Eccentricity
0.00613
Inclination
67.9964°
RAAN
317.1947°
Arg. of periapsis
1.7551°
True anomaly
358.35918°
Mean anomaly
358.3792°
Eccentric anomaly
358.3692°
Mean motion
3.73103 °/min
Orbital period
96.49 mins
BSTAR
0.000030127
Loading maneuver chart data...
Computing Atmospheric mass density...
Loading historical data...
Loading historical data...
Loading historical data...
Loading historical data...
Loading historical data...
Loading historical data...
Loading historical data...
Other satellites on launch #47 in the year 2000 (2000-08-17 UTC)

Documentation

Showing up to 5 results
|